Palacios, TX

2:39 PM CST on February 27, 2017 (GMT -0600)
Palacios Municipal

Weather History for KPSX - September, 2012

Change the Weather History Date:

Saturday, September 29, 2012

  Actual Average Record
Temperature  
Mean Temperature 80 °F -  
Max Temperature 84 °F 85 °F 98 °F (2005)
Min Temperature 75 °F 65 °F 49 °F (1967)
Cooling Degree Days 14    
Growing Degree Days 30 (Base 50)    
Moisture  
Dew Point 74 °F    
Average Humidity 87    
Maximum Humidity 94    
Minimum Humidity 72    
Precipitation  
Precipitation 3.58 in - - ()
Sea Level Pressure  
Sea Level Pressure 29.83 in    
Wind  
Wind Speed 7 mph (SSE)    
Max Wind Speed 21 mph    
Max Gust Speed 28 mph    
Visibility 6 miles    
Events Fog , Rain , Thunderstorm    
Averages and records for this station are not official NWS values.
T = Trace of Precipitation, MM = Missing Value Source: NWS Daily Summary

Daily Weather History Graph

Daily Weather History Graph

Search for Another Location

Airport or City:

Trip Planner

Search our weather history database for the weather conditions in past years. The results will help you decide how hot, cold, wet, or windy it might be!

Date:

Astronomy

Sep. 29, 2012 Rise Set
Actual Time 7:17 AM CDT 7:12 PM CDT
Civil Twilight 6:53 AM CDT 7:36 PM CDT
Nautical Twilight 6:26 AM CDT 8:03 PM CDT
Astronomical Twilight 5:58 AM CDT 8:30 PM CDT
Moon 6:49 PM CDT (9/29) 6:47 AM CDT (9/29)
Length of Visible Light 12h 42m
Length of Day
11h 55m
Full, 100% of the Moon is Illuminated
Sep 29
Full
Sep 29
Full
Oct 8
Last Quarter
Oct 15
New
Oct 21
First Quarter

Hourly Weather History & Observations

Time (CDT) Temp. Heat Index Dew Point Humidity Pressure Visibility Wind Dir Wind Speed Gust Speed Precip Events Conditions
12:53 AM 80.1 °F 85.1 °F 75.0 °F 85% 29.91 in 10.0 mi ESE 5.8 mph - N/A   Clear
1:53 AM 80.1 °F 85.1 °F 75.0 °F 85% 29.91 in 10.0 mi ESE 5.8 mph - N/A   Scattered Clouds
3:53 AM 78.1 °F - 73.0 °F 84% 29.88 in 8.0 mi East 6.9 mph - 0.02 in Rain Rain
4:28 AM 77.0 °F - 73.4 °F 89% 29.87 in 1.8 mi Calm Calm - 0.16 in Rain Heavy Rain
4:40 AM 77.0 °F - 73.4 °F 89% 29.87 in 3.0 mi Variable 3.5 mph - 0.22 in Rain Heavy Rain
4:49 AM 77.0 °F - 73.4 °F 89% 29.86 in 5.0 mi NNE 4.6 mph - 0.23 in Rain , Thunderstorm Thunderstorms and Rain
4:53 AM 77.0 °F - 73.9 °F 90% 29.87 in 4.0 mi ESE 15.0 mph 19.6 mph 0.26 in Rain , Thunderstorm Thunderstorms and Rain
5:12 AM 75.2 °F - 71.6 °F 89% 29.88 in 5.0 mi ENE 4.6 mph - 0.06 in Rain , Thunderstorm Rain
5:16 AM 75.2 °F - 71.6 °F 89% 29.87 in 5.0 mi ENE 5.8 mph - 0.07 in Rain , Thunderstorm Heavy Rain
5:32 AM 75.2 °F - 71.6 °F 89% 29.89 in 2.0 mi WNW 8.1 mph - 0.20 in Rain , Thunderstorm Heavy Thunderstorms and Rain
5:39 AM 75.2 °F - 71.6 °F 89% 29.89 in 1.8 mi NW 5.8 mph - 0.32 in Rain , Thunderstorm Heavy Thunderstorms and Rain
5:44 AM 75.2 °F - 71.6 °F 89% 29.89 in 0.8 mi Calm Calm - 0.46 in Rain , Thunderstorm Heavy Thunderstorms and Rain
5:53 AM 75.9 °F - 73.0 °F 91% 29.88 in 1.0 mi Calm Calm - 0.62 in Rain , Thunderstorm Heavy Thunderstorms and Rain
6:02 AM 75.2 °F - 73.4 °F 94% 29.88 in 1.8 mi West 3.5 mph - 0.05 in Rain , Thunderstorm Heavy Rain
6:09 AM 75.2 °F - 73.4 °F 94% 29.87 in 2.5 mi Calm Calm - 0.07 in Rain , Thunderstorm Heavy Rain
6:12 AM 75.2 °F - 73.4 °F 94% 29.87 in 3.0 mi Calm Calm - 0.08 in Rain Heavy Rain
6:53 AM 75.0 °F - 72.0 °F 90% 29.90 in 2.5 mi Calm Calm - 0.23 in Rain , Thunderstorm Heavy Rain
6:58 AM 75.2 °F - 73.4 °F 94% 29.90 in 0.8 mi NE 8.1 mph - 0.30 in Rain , Thunderstorm Heavy Rain
7:01 AM 75.2 °F - 71.6 °F 89% 29.90 in 0.5 mi East 9.2 mph - 0.49 in Fog , Rain Heavy Rain
7:08 AM 75.2 °F - 71.6 °F 89% 29.89 in 0.8 mi NNE 9.2 mph - 0.69 in Rain Heavy Rain
7:10 AM 75.2 °F - 71.6 °F 89% 29.90 in 1.0 mi Variable 5.8 mph - 0.71 in Rain , Thunderstorm Heavy Rain
7:26 AM 75.2 °F - 73.4 °F 94% 29.92 in 0.2 mi Calm Calm - 1.35 in Fog , Rain , Thunderstorm Heavy Rain
7:39 AM 75.2 °F - 71.6 °F 89% 29.91 in 0.5 mi SW 4.6 mph - 1.78 in Fog , Rain Heavy Rain
7:46 AM 75.2 °F - 71.6 °F 89% 29.91 in 1.2 mi SW 6.9 mph - 1.88 in Rain Heavy Rain
7:53 AM 75.0 °F - 73.0 °F 94% 29.91 in 1.5 mi SSW 5.8 mph - 1.94 in Rain Heavy Rain
8:00 AM 75.2 °F - 73.4 °F 94% 29.90 in 1.8 mi South 9.2 mph - 0.09 in Rain Heavy Rain
8:12 AM 75.2 °F - 73.4 °F 94% 29.89 in 3.0 mi SSE 4.6 mph - 0.15 in Rain Heavy Rain
8:53 AM 75.9 °F - 73.0 °F 91% 29.90 in 9.0 mi ESE 5.8 mph - 0.19 in Rain Light Rain
9:53 AM 77.0 °F - 73.9 °F 90% 29.90 in 10.0 mi ESE 8.1 mph - 0.01 in   Mostly Cloudy
10:20 AM 78.8 °F - 73.4 °F 83% 29.89 in 10.0 mi SE 10.4 mph - 0.00 in   Overcast
10:36 AM 78.8 °F - 73.4 °F 83% 29.89 in 10.0 mi SE 9.2 mph - 0.00 in   Overcast
10:51 AM 78.8 °F - 75.2 °F 89% 29.89 in 10.0 mi SE 9.2 mph - 0.00 in   Overcast
10:52 AM 78.1 °F - 75.0 °F 90% 29.89 in 10.0 mi SE 10.4 mph - 0.00 in   Overcast
11:11 AM 78.8 °F - 75.2 °F 89% 29.89 in 10.0 mi SE 10.4 mph - 0.00 in   Overcast
11:23 AM 78.8 °F - 75.2 °F 89% 29.88 in 10.0 mi SSE 9.2 mph - 0.00 in   Mostly Cloudy
11:53 AM 80.1 °F 85.1 °F 75.0 °F 85% 29.88 in 10.0 mi SSE 11.5 mph - 0.00 in   Mostly Cloudy
12:25 PM 80.6 °F 86.2 °F 75.2 °F 84% 29.87 in 10.0 mi SSE 10.4 mph - 0.00 in   Overcast
12:53 PM 82.9 °F 90.8 °F 75.9 °F 79% 29.85 in 10.0 mi SSE 12.7 mph - 0.00 in   Mostly Cloudy
1:19 PM 82.4 °F 89.5 °F 75.2 °F 79% 29.83 in 9.0 mi SSE 12.7 mph - 0.00 in Rain Light Rain
1:49 PM 84.2 °F 92.3 °F 75.2 °F 74% 29.81 in 10.0 mi SSE 15.0 mph - 0.00 in   Mostly Cloudy
1:53 PM 82.9 °F 90.8 °F 75.9 °F 79% 29.81 in 10.0 mi SSE 11.5 mph - 0.00 in   Mostly Cloudy
2:53 PM 84.0 °F 91.2 °F 73.9 °F 72% 29.77 in 10.0 mi SSE 16.1 mph - N/A   Mostly Cloudy
3:53 PM 82.9 °F 89.4 °F 73.9 °F 74% 29.76 in 10.0 mi SSE 18.4 mph 24.2 mph 0.00 in   Mostly Cloudy
4:07 PM 82.4 °F 89.5 °F 75.2 °F 79% 29.75 in 10.0 mi SSE 20.7 mph 26.5 mph N/A   Mostly Cloudy
4:21 PM 82.4 °F 89.5 °F 75.2 °F 79% 29.73 in 10.0 mi SSE 16.1 mph - N/A   Mostly Cloudy
4:53 PM 81.0 °F 86.7 °F 75.0 °F 82% 29.73 in 10.0 mi SSE 16.1 mph - N/A   Scattered Clouds
5:53 PM 81.0 °F 87.3 °F 75.9 °F 85% 29.72 in 6.0 mi SSE 10.4 mph - 0.01 in Rain Light Rain
6:22 PM 80.6 °F 86.2 °F 75.2 °F 84% 29.72 in 5.0 mi SE 15.0 mph - 0.02 in Rain , Thunderstorm Rain
6:31 PM 80.6 °F 86.2 °F 75.2 °F 84% 29.73 in 2.5 mi SE 16.1 mph - 0.06 in Rain Heavy Rain
6:39 PM 78.8 °F - 75.2 °F 89% 29.72 in 4.0 mi SE 16.1 mph - 0.07 in Rain Rain
6:44 PM 78.8 °F - 75.2 °F 89% 29.72 in 5.0 mi SE 15.0 mph - 0.07 in Rain , Thunderstorm Rain
6:53 PM 79.0 °F - 75.0 °F 88% 29.73 in 5.0 mi SE 17.3 mph 26.5 mph 0.08 in Rain , Thunderstorm Rain
7:09 PM 78.8 °F - 73.4 °F 83% 29.74 in 5.0 mi SE 10.4 mph - 0.02 in Rain , Thunderstorm Rain
7:29 PM 78.8 °F - 75.2 °F 89% 29.75 in 3.0 mi WSW 4.6 mph - 0.08 in Rain , Thunderstorm Heavy Rain
7:38 PM 78.8 °F - 75.2 °F 89% 29.73 in 2.0 mi South 8.1 mph - 0.19 in Rain , Thunderstorm Heavy Rain
7:47 PM 78.8 °F - 73.4 °F 83% 29.73 in 4.0 mi SW 9.2 mph - 0.21 in Rain Rain
7:53 PM 78.1 °F - 73.9 °F 87% 29.73 in 7.0 mi Calm Calm - 0.21 in Rain Light Rain
8:10 PM 78.8 °F - 73.4 °F 83% 29.75 in 10.0 mi WSW 4.6 mph - 0.01 in Rain Light Rain
8:17 PM 78.8 °F - 75.2 °F 89% 29.75 in 10.0 mi South 5.8 mph - N/A   Overcast
8:26 PM 78.8 °F - 75.2 °F 89% 29.73 in 10.0 mi South 9.2 mph - 0.01 in   Mostly Cloudy
8:53 PM 79.0 °F - 75.0 °F 88% 29.73 in 10.0 mi South 11.5 mph - 0.01 in   Scattered Clouds
9:03 PM 80.6 °F 86.2 °F 75.2 °F 84% 29.72 in 10.0 mi South 12.7 mph - N/A   Mostly Cloudy
9:14 PM 78.8 °F - 73.4 °F 83% 29.72 in 10.0 mi South 9.2 mph - N/A   Scattered Clouds
9:53 PM 79.0 °F - 73.9 °F 84% 29.72 in 10.0 mi South 10.4 mph - N/A   Partly Cloudy
10:53 PM 81.0 °F 86.7 °F 75.0 °F 82% 29.75 in 10.0 mi South 18.4 mph 27.6 mph N/A   Mostly Cloudy